Home > Weather > Hamilton > Past weeks

Flag for Bermuda Past Weather in Hamilton, Bermuda — Yesterday and Last 2 Weeks

Now
77 °F

Partly cloudy.


Feels Like: 78 °F
Forecast: 77 / 80 °F
Wind: 8 mph from South

Location: Bermuda

Current Time: Jun 30, 2016 at 5:35:48 AM

Latest Report: Jun 30, 2016 at 4:55 AM


Visibility: N/A

Pressure: 30.15 "Hg

Humidity: 94%

Dew Point: 75 °F

Location of HamiltonLocation

Past Weather in Hamilton — Graph

°F

Hamilton Temperature Yesterday

Maximum temperature yesterday: 81 °F (at 10:55 AM)
Minimum temperature yesterday: 75 °F (at 11:55 AM)
Average temperature yesterday: 78 °F

High & Low Weather Summary for the Past Weeks

 TemperatureHumidityPressure
High82 °F (Jun 16, 1:55 PM)94% (Jun 18, 12:55 AM)30.27 "Hg (Jun 18, 12:55 AM)
Low72 °F (Jun 18, 5:55 AM)65% (Jun 15, 3:55 PM)29.80 "Hg (Jun 17, 2:55 AM)
Average77 °F82%30.10 "Hg
* Reported Jun 15 3:55 AM — Jun 30 3:55 AM, Hamilton, Weather by CustomWeather, © 2016

Note: Actual official high and low records may vary slightly from our data, if they occured in-between our weather recording intervals... More about our weather records

Advertising

Hamilton Weather History for the Previous 24 Hours

Scroll right to see more
 ConditionsComfort  
Time TempWeatherWind HumidityBarometerVisibility
3:55 AM
Thu, Jun 30
77 °FPartly cloudy.9 mph94%30.15 "HgN/A
2:55 AM77 °FPartly cloudy.9 mph94%30.15 "HgN/A
1:55 AM79 °FPartly cloudy.9 mph89%30.18 "HgN/A
12:55 AM77 °FPartly cloudy.9 mph94%30.18 "HgN/A
11:55 PM
Wed, Jun 29
77 °FPassing clouds.8 mph89%30.21 "HgN/A
10:55 PM77 °FPartly cloudy.8 mph89%30.21 "HgN/A
9:55 PM77 °FPartly cloudy.10 mph89%30.21 "HgN/A
8:55 PM79 °FBroken clouds.8 mph89%30.18 "HgN/A
7:55 PM79 °FSprinkles. Broken clouds.7 mph84%30.18 "HgN/A
6:55 PM77 °FScattered showers. Broken clouds.8 mph89%30.18 "HgN/A
5:55 PM77 °FSprinkles. Partly sunny.13 mph89%30.18 "HgN/A
4:55 PM77 °FThunderstorms. Mostly cloudy.9 mph89%30.18 "HgN/A
3:55 PM77 °FSprinkles. More clouds than sun.5 mph83%30.18 "HgN/A
2:55 PM77 °FScattered showers. Cloudy.8 mph83%30.18 "HgN/A
2:00 PM75 °FMild.10 mph83%30.18 "Hg6 mi
1:55 PM75 °FRain showers. Low clouds.16 mph83%30.18 "Hg2 mi
12:55 PM77 °FSprinkles. Broken clouds.16 mph79%30.18 "HgN/A
11:55 AM75 °FScattered showers. Mostly cloudy.15 mph83%30.18 "HgN/A
10:55 AM81 °FBroken clouds.12 mph84%30.18 "HgN/A
9:55 AM79 °FBroken clouds.13 mph84%30.18 "HgN/A
8:55 AM79 °FBroken clouds.10 mph84%30.18 "HgN/A
7:55 AM79 °FScattered showers. Broken clouds.15 mph84%30.15 "HgN/A
6:55 AM79 °FPartly cloudy.13 mph84%30.15 "HgN/A
5:55 AM77 °FPartly cloudy.14 mph83%30.12 "HgN/A
Weather by CustomWeather, © 2016

See weather overviewHow to use our weather pages